カタログに戻る

AURORA 2 R/B

PAM-D

運用中GTO
NORAD 21394·ROCKET BODY·🇺🇸 United States

打ち上げ May 29, 1991 から Cape Canaveral Space Force Station

Loading…

TLE

古いSource: Space-Track

元期: Sep 14, 2026, 08:50 UTC

1 21394U 91037C   26257.36845156 -.00000197  00000-0  00000-0 0  9997
2 21394  24.1914  13.8608 6844896 352.5453   4.5840  2.22008218286394

AllMySatでAURORA 2 R/Bをリアルタイム追跡

Download on the App Store